TimeCST,TemperatureF,Dew PointF,Humidity,Sea Level PressureIn,VisibilityMPH,Wind Direction,Wind SpeedMPH,Gust SpeedMPH,PrecipitationIn,Events,Conditions,WindDirDegrees,DateUTC
12:17 AM,39.2,37.4,93,30.07,5.0,Calm,Calm,-,N/A,,Clear,0,2013-02-14 06:17:00
12:51 AM,37.4,35.6,93,30.07,1.8,Calm,Calm,-,N/A,,Clear,0,2013-02-14 06:51:00
12:53 AM,39.0,36.0,89,30.07,1.5,Calm,Calm,-,N/A,,Clear,0,2013-02-14 06:53:00
1:07 AM,37.4,35.6,93,30.07,2.0,Calm,Calm,-,N/A,,Clear,0,2013-02-14 07:07:00
1:15 AM,37.4,35.6,93,30.07,1.5,Calm,Calm,-,N/A,,Clear,0,2013-02-14 07:15:00
1:41 AM,37.4,35.6,93,30.06,3.0,Calm,Calm,-,N/A,,Clear,0,2013-02-14 07:41:00
1:46 AM,37.4,35.6,93,30.06,1.8,Calm,Calm,-,N/A,,Clear,0,2013-02-14 07:46:00
1:53 AM,37.0,35.1,93,30.06,1.0,Calm,Calm,-,N/A,,Clear,0,2013-02-14 07:53:00
2:02 AM,35.6,33.8,93,30.06,0.5,Calm,Calm,-,N/A,Fog,Fog,0,2013-02-14 08:02:00
2:19 AM,37.4,33.8,87,30.06,2.0,Calm,Calm,-,N/A,,Clear,0,2013-02-14 08:19:00
2:28 AM,35.6,33.8,93,30.06,0.8,Calm,Calm,-,N/A,,Clear,0,2013-02-14 08:28:00
2:41 AM,35.6,33.8,93,30.06,0.5,Calm,Calm,-,N/A,Fog,Fog,0,2013-02-14 08:41:00
2:53 AM,36.0,33.1,89,30.07,0.5,Calm,Calm,-,N/A,Fog,Fog,0,2013-02-14 08:53:00
3:05 AM,35.6,33.8,93,30.07,1.2,Calm,Calm,-,N/A,,Partly Cloudy,0,2013-02-14 09:05:00
3:08 AM,37.4,33.8,87,30.07,3.0,Calm,Calm,-,N/A,,Partly Cloudy,0,2013-02-14 09:08:00
3:38 AM,35.6,33.8,93,30.08,1.8,Calm,Calm,-,N/A,,Clear,0,2013-02-14 09:38:00
3:47 AM,35.6,33.8,93,30.08,3.0,Calm,Calm,-,N/A,,Clear,0,2013-02-14 09:47:00
3:53 AM,36.0,34.0,93,30.09,4.0,Calm,Calm,-,N/A,,Clear,0,2013-02-14 09:53:00
4:53 AM,37.0,34.0,89,30.08,5.0,NNW,3.5,-,N/A,,Clear,340,2013-02-14 10:53:00
5:53 AM,37.9,36.0,93,30.09,6.0,NNW,3.5,-,N/A,,Clear,340,2013-02-14 11:53:00
6:53 AM,37.9,35.1,89,30.11,5.0,Calm,Calm,-,N/A,,Clear,0,2013-02-14 12:53:00
7:53 AM,39.9,37.0,89,30.15,6.0,Calm,Calm,-,N/A,,Clear,0,2013-02-14 13:53:00
8:53 AM,42.1,37.9,85,30.17,8.0,Calm,Calm,-,N/A,,Clear,0,2013-02-14 14:53:00
9:53 AM,46.9,39.9,77,30.16,10.0,NNE,4.6,-,N/A,,Clear,20,2013-02-14 15:53:00
10:53 AM,48.9,39.0,69,30.16,10.0,ENE,3.5,-,N/A,,Clear,70,2013-02-14 16:53:00
11:53 AM,51.1,39.0,63,30.15,10.0,Calm,Calm,-,N/A,,Clear,0,2013-02-14 17:53:00
12:53 PM,54.0,39.0,57,30.10,10.0,NNW,6.9,-,N/A,,Clear,340,2013-02-14 18:53:00
1:53 PM,57.0,37.0,47,30.08,10.0,Calm,Calm,-,N/A,,Clear,0,2013-02-14 19:53:00
2:53 PM,59.0,37.0,44,30.07,10.0,NNW,5.8,-,N/A,,Clear,330,2013-02-14 20:53:00
3:43 PM,59.0,35.6,42,30.07,2.5,Calm,Calm,-,N/A,,Haze,0,2013-02-14 21:43:00
3:53 PM,59.0,36.0,42,30.07,10.0,NNE,5.8,-,N/A,,Clear,30,2013-02-14 21:53:00
4:53 PM,57.0,35.1,44,30.07,10.0,North,6.9,-,N/A,,Clear,350,2013-02-14 22:53:00
5:53 PM,51.1,39.0,63,30.08,10.0,Calm,Calm,-,N/A,,Clear,0,2013-02-14 23:53:00
6:53 PM,46.0,41.0,83,30.09,10.0,NW,3.5,-,N/A,,Clear,320,2013-02-15 00:53:00
7:53 PM,43.0,39.0,86,30.11,10.0,Calm,Calm,-,N/A,,Clear,0,2013-02-15 01:53:00
8:53 PM,41.0,37.9,89,30.12,6.0,Calm,Calm,-,N/A,,Clear,0,2013-02-15 02:53:00
9:46 PM,39.2,37.4,93,30.12,2.0,Calm,Calm,-,N/A,,Clear,0,2013-02-15 03:46:00
9:53 PM,39.9,37.0,89,30.12,5.0,Calm,Calm,-,N/A,,Clear,0,2013-02-15 03:53:00
10:53 PM,39.0,36.0,89,30.12,6.0,Calm,Calm,-,N/A,,Clear,0,2013-02-15 04:53:00
11:53 PM,37.0,34.0,89,30.12,6.0,Calm,Calm,-,N/A,,Clear,0,2013-02-15 05:53:00
11:58 PM,37.4,33.8,87,30.11,1.8,Calm,Calm,-,N/A,,Clear,0,2013-02-15 05:58:00